Tracking 23610 objects as of 19-Sep-2021
HD Live streaming from Space Station
objects crossing your sky now

DMSP 5D-2 F13 DEB

Track DMSP 5D-2 F13 DEB now!
10-day predictions


NORAD ID: 40399
Int'l Code: 1995-015L
Perigee: 828.2 km
Apogee: 841.8 km
Inclination: 98.8 °
Period: 101.5 minutes
Semi major axis: 7206 km
RCS: Unknown
Launch date: March 24, 1995
Source: United States (US)
Launch site: AIR FORCE WESTERN TEST RANGE (AFWTR)

Note: This is SATELLITE DEBRIS
aabbcc
Your satellite tracking list
Your tracking list is empty




NASA's NSSDC Master Catalog

Two Line Element Set (TLE):
1 40399U 95015L   21261.28708356  .00000551  00000-0  28398-3 0  9990
2 40399  98.7903 269.9884 0009443 316.9021  43.1415 14.19249593339663
Source of the keplerian elements: AFSPC